Location: Observatory
(52.1446°N, 0.4624°W)
Time: 00:56:36
(UTC+00:00)

ISS - Visible Passes

Search period start: 23 March 2019 00:00
Search period end: 02 April 2019 01:00
Orbit: 406 x 411 km, 51.6° (Epoch: 23 March)

Date Brightness Start Highest point End Pass type
(mag) Time Alt. Az. Time Alt. Az. Time Alt. Az.
23 Mar -2.2 19:21:35 10° SSW 19:24:04 20° SE 19:25:12 17° ESE visible
23 Mar -1.5 20:56:56 10° WSW 20:57:57 18° WSW 20:57:57 18° WSW visible
24 Mar -3.5 20:06:00 10° SW 20:09:11 46° SSE 20:09:24 45° SE visible
25 Mar -3.0 19:15:12 10° SW 19:18:13 33° SSE 19:20:42 13° E visible
25 Mar -2.6 20:51:16 10° WSW 20:53:27 38° WSW 20:53:27 38° WSW visible
26 Mar -3.9 20:00:12 10° WSW 20:03:29 67° SSE 20:04:36 37° E visible
26 Mar -0.9 21:36:42 10° W 21:37:21 15° W 21:37:21 15° W visible
27 Mar -3.5 19:09:12 10° WSW 19:12:26 53° SSE 19:15:40 10° E visible
27 Mar -3.5 20:45:35 10° W 20:48:24 61° W 20:48:24 61° W visible
28 Mar -3.9 19:54:29 10° W 19:57:47 82° S 19:59:24 28° E visible
28 Mar -1.3 21:31:01 10° W 21:32:08 19° W 21:32:08 19° W visible
29 Mar -3.8 19:03:22 10° WSW 19:06:40 73° S 19:09:58 10° E visible
29 Mar -3.8 20:39:53 10° W 20:43:03 73° SW 20:43:03 73° SW visible
30 Mar -3.9 19:48:45 10° W 19:52:04 83° S 19:53:57 23° E visible
30 Mar -1.5 21:25:20 10° W 21:26:41 21° W 21:26:41 21° W visible
31 Mar -3.6 21:34:09 10° W 21:37:23 55° SSW 21:37:33 54° S visible
01 Apr -3.7 20:42:59 10° W 20:46:16 69° SSW 20:48:25 20° ESE visible
01 Apr -1.5 22:19:44 10° W 22:21:08 19° WSW 22:21:08 19° WSW visible
